Location: ?????
(54.9266°N, 38.5527°E)
Time: 03:13:13
(UTC+00:00)

Cosmos 1805 - Pass Details

Date: 14 April 2024
Orbit: 490 x 494 km, 82.5° (Epoch: 23 May)

Event Time Altitude Azimuth Distance (km) Brightness Sun altitude
Rises 00:39:46 0° 349° (N) 2,587 7.2 -13.9°
Reaches altitude 10° 00:41:54 10° 351° (N) 1,699 6.2 -13.7°
Maximum altitude 00:45:37 75° 77° (ENE) 515 3.3 -13.3°
Drops below altitude 10° 00:49:18 10° 164° (SSE) 1,681 5.6 -12.9°
Sets 00:51:24 0° 166° (SSE) 2,558 6.5 -12.6°
